[Iaude] MPEC T50: 2016 TG10 [a=1.44,e=0.26,i=22.0,H=25.5]

mpec at si.edu mpec at si.edu
Thu Oct 6 12:55:40 EDT 2016


M.P.E.C. 2016-T50                                Issued 2016 Oct. 6, 16:52 UT
 
     The Minor Planet Electronic Circulars contain information on unusual
         minor planets and routine data on comets.  They are published
    on behalf of Division F of the International Astronomical Union by the
          Minor Planet Center, Smithsonian Astrophysical Observatory,
                          Cambridge, MA 02138, U.S.A.

             Prepared using the Tamkin Foundation Computer Network

                              MPC at CFA.HARVARD.EDU
            URL http://www.minorplanetcenter.net/    ISSN 1523-6714


                                   2016 TG10
 
Observations:
     K16T10G* C2016 10 04.33240 00 51 13.45 -02 26 05.8          20.3 VqET050G96
     K16T10G  C2016 10 04.33800 00 51 15.75 -02 27 37.8          20.2 VqET050G96
     K16T10G  C2016 10 04.34362 00 51 18.14 -02 29 10.5          20.5 VqET050G96
     K16T10G  C2016 10 04.34922 00 51 20.48 -02 30 41.4          19.9 VqET050G96
     K16T10G KC2016 10 05.02308 00 56 24.93 -05 30 57.0          20.7 RqET050J95
     K16T10G KC2016 10 05.05032 00 56 36.15 -05 38 02.4                qET050J95
     K16T10G KC2016 10 05.05759 00 56 39.16 -05 39 55.6          20.1 RqET050J95
     K16T10G  C2016 10 05.19278700 57 43.83 -06 14 31.4          21.3 VtET050H01
     K16T10G  C2016 10 05.20655700 57 49.41 -06 18 04.8          21.3 VtET050H01
     K16T10G  C2016 10 05.21057300 57 51.05 -06 19 07.2          21.4 VtET050H01
     K16T10G  C2016 10 05.21735400 57 53.80 -06 20 51.8          20.5 VtET050H01
     K16T10G  C2016 10 05.23662 00 58 01.97 -06 25 45.4          21.7 RoET050926
     K16T10G  C2016 10 05.23964 00 58 03.20 -06 26 32.1          21.6 RoET050926
     K16T10G  C2016 10 05.24265 00 58 04.40 -06 27 18.5          21.3 RoET050926
     K16T10G  C2016 10 05.34928 00 58 46.68 -06 54 36.1          20.2 VqET050G96
     K16T10G  C2016 10 05.35159 00 58 47.59 -06 55 11.3          20.3 VqET050G96
     K16T10G  C2016 10 05.35391 00 58 48.56 -06 55 46.0          20.9 VqET050G96
     K16T10G  C2016 10 05.35624 00 58 49.41 -06 56 22.0          20.4 VqET050G96
     K16T10G KC2016 10 06.40462 01 06 09.81 -11 12 12.2                oET050291
     K16T10G KC2016 10 06.40634 01 06 10.43 -11 12 35.9                oET050291
     K16T10G KC2016 10 06.40807 01 06 11.07 -11 12 59.9                oET050291
 
Observer details:
291 LPL/Spacewatch II.  Observer J. V. Scotti.  1.8-m f/2.7 reflector + CCD.
926 Tenagra II Observatory.  Observers M. Schwartz, P. R. Holvorcem.  Measurer
    M. Schwartz.  0.81-m f/7 Ritchey-Chretien + CCD.
G96 Mt. Lemmon Survey.  Observers A. D. Grauer, R. G. Matheny.  Measurers
    E. J. Christensen, D. C. Fuls, A. R. Gibbs, A. D. Grauer, J. A. Johnson,
    R. A. Kowalski, S. M. Larson, G. J. Leonard, R. G. Matheny, R. L. Seaman,
    F. C. Shelly.  1.5-m reflector + 10K CCD.
H01 Magdalena Ridge Observatory, Socorro.  Observers W. H. Ryan, E. V. Ryan.
    Measurer W. H. Ryan.  2.4-m f/8.9 reflector + CCD.
J95 Great Shefford.  Observer P. Birtwhistle.  0.40-m f/6.0 Schmidt-Cassegrain
    + CCD.
 
Orbital elements:
2016 TG10                                                Earth MOID = 0.0733 AU
Epoch 2016 July 31.0 TT = JDT 2457600.5                 MPC
M 333.06316              (2000.0)            P               Q
n   0.57001516     Peri.  163.36732     +0.98964043     +0.12812721
a   1.4406056      Node   189.96693     -0.13031289     +0.99099715
e   0.2596732      Incl.   21.97639     +0.06025255     +0.03883377
P   1.73           H   25.5           G   0.15           U   7
Residuals in seconds of arc
161004 G96  0.1-  0.4+    161005 H01  0.2-  0.3+    161005 G96  0.6-  0.0
161004 G96  0.8-  0.1+    161005 H01  0.4-  0.2+    161005 G96  0.7-  0.0
161004 G96  0.3-  0.6-    161005 H01  0.2-  0.1-    161005 G96  0.1+  0.7+
161004 G96  0.4-  0.1+    161005 H01  0.0   0.1+    161005 G96  1.0-  0.2+
161005 J95  0.7+  0.2-    161005 926  0.3-  0.0     161006 291  0.3+  0.3-
161005 J95  0.1+  0.1-    161005 926  0.0   0.1-    161006 291  0.1-  0.0
161005 J95  0.2+  0.1+    161005 926  0.1-  0.0     161006 291  0.3-  0.1+

Ephemeris:
2016 TG10                a,e,i = 1.44, 0.26, 22                  q = 1.0665
Date    TT    R. A. (2000) Decl.     Delta      r     Elong.  Phase     V
2016 09 06    20 30 41.2 +63 57 47   0.1883  1.0701   104.3    65.9    24.3
...
2016 09 21    22 39 55.6 +51 10 58   0.1027  1.0673   125.8    49.7    22.6
...
2016 09 29    00 04 47.6 +23 39 46   0.07518 1.0720   158.3    20.2    21.0
...
2016 10 05    00 56 14.9 -05 23 11   0.07946 1.0782   169.4     9.8    20.8
2016 10 06    01 03 25.3 -09 34 45   0.08243 1.0795   164.8    14.1    21.0
2016 10 07    01 10 12.2 -13 26 11   0.08593 1.0808   160.5    18.0    21.3
...
2016 10 13    01 43 23.7 -29 52 23   0.1148  1.0900   141.7    34.6    22.4
...
2016 10 21    02 12 04.3 -40 02 47   0.1639  1.1056   128.8    44.5    23.5
...
2016 11 05    02 39 06.6 -45 24 54   0.2649  1.1433   118.9    49.4    24.7

A. U. Tomatic                (C) Copyright 2016 MPC           M.P.E.C. 2016-T50




More information about the Iaude mailing list